Regional Weather Roundup
Issued by NWS

Home | Current Version | Previous Version | Graphics & Text | Print | Product List | Glossary On
Versions: 1 2 3 4 5 6 7 8 9 10 11 12 13 14 15 16 17 18 19 20 21 22 23 24 25 26 27 28 29 30 31 32 33 34 35 36 37 38 39 40 41 42 43 44 45 46 47 48 49 50
348
ASUS45 KABQ 251101
RWRNM
NEW MEXICO REGIONAL WEATHER ROUNDUP
NATIONAL WEATHER SERVICE ALBUQUERQUE NM
500 AM MDT MON JUL 25 2016

NOTE: "FAIR" MEANS FEW OR NO CLOUDS BELOW 12,000 FEET AGL WITH NO
       SIGNIFICANT WEATHER OR OBSTRUCTIONS TO VISION.

      THIS PRODUCT IS RELEASED AS TWO VERSIONS.  ONE VERSION NEAR
      THE TOP OF THE HOUR CONTAINING PRELIMINARY DATA FROM ALBUQUERQUE
      AND OTHER STATIONS.  A FINAL VERSION WITH ADDITIONAL DATA IS
      ISSUED ABOUT 10 MINUTES AFTER THE HOUR.

NMZ501-503-504-510>518-251200-
NORTHWEST PLATEAU/NORTHCENTRAL MOUNTAINS

CITY           SKY/WX    TMP DP  RH WIND       PRES   REMARKS
FARMINGTON     FAIR      71  47  42 E10       30.21R
LOS ALAMOS     FAIR      66  49  53 CALM      30.39R
SANTA FE       FAIR      66  51  58 N6        30.31R
TAOS           FAIR      57  36  44 E7        30.39S
ANGEL FIRE     FAIR      45  44  94 CALM      30.49R

$$
NMZ402-403-502-505>509-251200-
WESTCENTRAL MOUNTAINS/SOUTHWEST MOUNTAINS

CITY           SKY/WX    TMP DP  RH WIND       PRES   REMARKS
GALLUP         FAIR      66  50  56 E5        30.28S
GRANTS         MOCLDY    62  52  69 CALM      30.34R
SILVER CITY    FAIR      72  53  51 NW14      30.21F

$$
NMZ407-409-411-412-251200-
SOUTHERN DESERTS

CITY           SKY/WX    TMP DP  RH WIND       PRES   REMARKS
LORDSBURG      FAIR      72  55  56 SW5       30.15F
DEMING         FAIR      72  59  63 W6        30.13F
LAS CRUCES     FAIR      72  56  55 N7        30.12S
ALAMOGORDO     FAIR      72  55  56 CALM      30.11S
T OR C         FAIR      77  52  41 N5        30.16S

$$
NMZ519>523-251200-
CENTRAL VALLEYS/CENTRAL HIGHLANDS

CITY           SKY/WX    TMP DP  RH WIND       PRES   REMARKS
ALBUQUERQUE    FAIR      69  57  65 E6        30.24R
DOUBLE EAGLE   FAIR      64  53  68 CALM      30.28R
MORIARTY ARPT  FAIR      64  56  77 E3        30.31R
CLINES CORNERS FAIR      64  51  62 S6        30.37R
BELEN          FAIR      70  56  62 N8        30.22R
SOCORRO        FAIR      73  53  49 CALM      30.19S

$$
NMZ524>526-539-540-251200-
SOUTHCENTRAL MOUNTAINS

CITY           SKY/WX    TMP DP  RH WIND       PRES   REMARKS
RUIDOSO        NOT AVBL

$$
NMZ527>531-251200-
NORTHEAST HIGHLANDS/NORTHEAST PLAINS

CITY           SKY/WX    TMP DP  RH WIND       PRES   REMARKS
LAS VEGAS      FAIR      54  51  90 E6        30.37R
RATON          FAIR      55  52  89 NE8       30.32S
CLAYTON        FAIR      63  62  97 N8        30.24S

$$
NMZ532>537-251200-
EASTCENTRAL PLAINS

CITY           SKY/WX    TMP DP  RH WIND       PRES   REMARKS
TUCUMCARI      FAIR      68  59  73 N6        30.16S
CANNON AFB     FAIR      69  59  70 NE14      30.17R
CLOVIS AIRPORT FAIR      66  55  68 N9        30.17R

$$
NMZ028-029-538-251200-
SOUTHEAST PLAINS

CITY           SKY/WX    TMP DP  RH WIND       PRES   REMARKS
ROSWELL        FAIR      76  54  46 N8        30.10R
ARTESIA        FAIR      73  55  53 N9        30.09S
CARLSBAD       FAIR      75  52  44 NW3       30.05S
HOBBS          FAIR      73  54  49 CALM      30.11R


$$




USA.gov is the U.S. government's official web portal to all federal, state and local government web resources and services.